HTX225 KRDU-KBOS

Flight info

Callsign HTX225
Flight time 1h 31m
Altitude 37000
Route BEXGO5 BOUSY GEARS BBOBO Q22 RBV Q419 JFK ROBUC3
Aircraft B738/M-SDE2E3FGHIRWXY/LB1

Departure

Time 2026-05-06 23:58
Airport Raleigh-Durham International Airport (KRDU)

Arrival

Time 2026-05-07 01:29
Airport Boston Logan International Airport (KBOS)
Time Latitude Longitude Altitude Speed Heading
2026-05-06 23:11 35.87872 -78.79273 391 ft 0 kts 132°
2026-05-06 23:11 35.87870 -78.79269 391 ft 0 kts 132°
2026-05-06 23:12 35.87927 -78.79198 391 ft 0 kts 135°
2026-05-06 23:46 35.87939 -78.79212 391 ft 4 kts 135°
2026-05-06 23:47 35.87955 -78.79236 391 ft 4 kts 112°
2026-05-06 23:47 35.87958 -78.79265 391 ft 4 kts 64°
2026-05-06 23:47 35.87951 -78.79278 391 ft 0 kts 45°
2026-05-06 23:49 35.87952 -78.79278 391 ft 0 kts 45°
2026-05-06 23:51 35.87970 -78.79256 391 ft 12 kts 44°
2026-05-06 23:51 35.88060 -78.79146 391 ft 22 kts 45°
2026-05-06 23:51 35.88166 -78.79011 390 ft 22 kts 45°
2026-05-06 23:52 35.88270 -78.78882 391 ft 21 kts 45°
2026-05-06 23:52 35.88372 -78.78756 390 ft 20 kts 45°
2026-05-06 23:52 35.88471 -78.78634 391 ft 20 kts 45°
2026-05-06 23:52 35.88566 -78.78516 391 ft 19 kts 45°
2026-05-06 23:53 35.88659 -78.78401 391 ft 19 kts 45°
2026-05-06 23:53 35.88748 -78.78291 391 ft 18 kts 45°
2026-05-06 23:53 35.88835 -78.78185 391 ft 17 kts 45°
2026-05-06 23:53 35.88918 -78.78082 391 ft 17 kts 45°
2026-05-06 23:54 35.88984 -78.77970 391 ft 16 kts 73°
2026-05-06 23:54 35.89037 -78.77855 391 ft 15 kts 46°
2026-05-06 23:54 35.89112 -78.77765 391 ft 15 kts 44°
2026-05-06 23:54 35.89184 -78.77678 391 ft 11 kts 44°
2026-05-06 23:55 35.89191 -78.77669 391 ft 1 kts 44°
2026-05-06 23:55 35.89196 -78.77662 391 ft 1 kts 44°
2026-05-06 23:55 35.89208 -78.77651 391 ft 6 kts 32°
2026-05-06 23:55 35.89258 -78.77675 391 ft 9 kts 315°
2026-05-06 23:56 35.89290 -78.77715 391 ft 1 kts 314°
2026-05-06 23:56 35.89295 -78.77721 391 ft 1 kts 314°
2026-05-06 23:56 35.89299 -78.77727 391 ft 1 kts 314°
2026-05-06 23:56 35.89316 -78.77749 391 ft 12 kts 313°
2026-05-06 23:57 35.89330 -78.77867 391 ft 16 kts 230°
2026-05-06 23:57 35.89207 -78.78020 390 ft 57 kts 225°
2026-05-06 23:57 35.88700 -78.78647 392 ft 146 kts 225°
2026-05-06 23:57 35.87828 -78.79718 669 ft 200 kts 225°
2026-05-06 23:58 35.86777 -78.81039 1220 ft 228 kts 226°
2026-05-06 23:58 35.85636 -78.82392 2276 ft 223 kts 223°
2026-05-06 23:58 35.84490 -78.83614 3316 ft 216 kts 223°
2026-05-06 23:58 35.83356 -78.84802 4210 ft 210 kts 223°
2026-05-06 23:59 35.82252 -78.85989 4953 ft 212 kts 226°
2026-05-06 23:59 35.81208 -78.87229 5856 ft 199 kts 230°
2026-05-06 23:59 35.80495 -78.88573 6795 ft 174 kts 262°
2026-05-06 23:59 35.80378 -78.89947 7976 ft 153 kts 260°
2026-05-07 00:00 35.80218 -78.91166 9031 ft 143 kts 262°
2026-05-07 00:00 35.80457 -78.92471 9306 ft 183 kts 301°
2026-05-07 00:00 35.81469 -78.93650 9562 ft 217 kts 311°
2026-05-07 00:00 35.82926 -78.94600 9799 ft 266 kts 342°
2026-05-07 00:01 35.84900 -78.94341 10144 ft 310 kts 17°
2026-05-07 00:01 35.86790 -78.92745 10389 ft 350 kts 40°
2026-05-07 00:01 35.88539 -78.90513 10788 ft 370 kts 44°
2026-05-07 00:01 35.90293 -78.88147 11523 ft 376 kts 44°
2026-05-07 00:02 35.92065 -78.85767 12400 ft 377 kts 43°
2026-05-07 00:02 35.93866 -78.83401 13288 ft 378 kts 42°
2026-05-07 00:02 35.95692 -78.81051 14076 ft 381 kts 41°
2026-05-07 00:02 35.97552 -78.78695 14787 ft 386 kts 41°
2026-05-07 00:03 35.99446 -78.76319 15466 ft 391 kts 40°
2026-05-07 00:03 36.01376 -78.73907 16124 ft 396 kts 40°
2026-05-07 00:03 36.03299 -78.71508 16828 ft 400 kts 39°
2026-05-07 00:03 36.05270 -78.69049 17498 ft 405 kts 39°
2026-05-07 00:04 36.07262 -78.66561 18245 ft 407 kts 39°
2026-05-07 00:04 36.09259 -78.64063 18871 ft 411 kts 39°
2026-05-07 00:04 36.11283 -78.61531 19415 ft 416 kts 39°
2026-05-07 00:04 36.13329 -78.58968 19972 ft 421 kts 39°
2026-05-07 00:05 36.15403 -78.56368 20557 ft 426 kts 39°
2026-05-07 00:05 36.17489 -78.53749 21132 ft 430 kts 39°
2026-05-07 00:05 36.19604 -78.51093 21709 ft 434 kts 40°
2026-05-07 00:05 36.21736 -78.48413 22204 ft 440 kts 40°
2026-05-07 00:06 36.23894 -78.45697 22738 ft 444 kts 40°
2026-05-07 00:06 36.26070 -78.42958 23279 ft 448 kts 40°
2026-05-07 00:06 36.28302 -78.40253 23757 ft 449 kts 36°
2026-05-07 00:06 36.30732 -78.37836 24193 ft 448 kts 31°
2026-05-07 00:07 36.33264 -78.35561 24634 ft 450 kts 29°
2026-05-07 00:07 36.35831 -78.33304 25058 ft 454 kts 30°
2026-05-07 00:07 36.38405 -78.31004 25475 ft 458 kts 30°
2026-05-07 00:07 36.40982 -78.28650 25882 ft 462 kts 31°
2026-05-07 00:08 36.43527 -78.26285 26282 ft 466 kts 31°
2026-05-07 00:08 36.46126 -78.23851 26655 ft 470 kts 31°
2026-05-07 00:08 36.48743 -78.21399 27046 ft 473 kts 31°
2026-05-07 00:08 36.51379 -78.18929 27434 ft 476 kts 31°
2026-05-07 00:09 36.54028 -78.16439 27798 ft 479 kts 31°
2026-05-07 00:09 36.56695 -78.13924 28236 ft 482 kts 32°
2026-05-07 00:09 36.59374 -78.11395 28599 ft 486 kts 32°
2026-05-07 00:09 36.62076 -78.08842 28945 ft 489 kts 32°
2026-05-07 00:10 36.64792 -78.06272 29315 ft 492 kts 32°
2026-05-07 00:10 36.67530 -78.03681 29579 ft 497 kts 32°
2026-05-07 00:10 36.70290 -78.01067 29910 ft 500 kts 32°
2026-05-07 00:10 36.73061 -77.98438 30234 ft 502 kts 32°
2026-05-07 00:11 36.75849 -77.95791 30515 ft 505 kts 31°
2026-05-07 00:11 36.78649 -77.93131 30825 ft 506 kts 30°
2026-05-07 00:11 36.81427 -77.90425 31130 ft 511 kts 34°
2026-05-07 00:11 36.83824 -77.87061 31313 ft 527 kts 49°
2026-05-07 00:12 36.85914 -77.83285 31579 ft 530 kts 51°
2026-05-07 00:12 36.87962 -77.79431 31824 ft 534 kts 51°
2026-05-07 00:12 36.90020 -77.75555 32100 ft 536 kts 50°
2026-05-07 00:12 36.92100 -77.71698 32438 ft 535 kts 49°
2026-05-07 00:13 36.94203 -77.67867 32778 ft 535 kts 48°
2026-05-07 00:13 36.96324 -77.64046 33062 ft 536 kts 47°
2026-05-07 00:13 36.98458 -77.60218 33330 ft 537 kts 47°
2026-05-07 00:13 37.00590 -77.56385 33729 ft 535 kts 47°
2026-05-07 00:14 37.02702 -77.52574 34170 ft 531 kts 46°
2026-05-07 00:14 37.04805 -77.48774 34454 ft 532 kts 46°
2026-05-07 00:14 37.06901 -77.45021 34686 ft 531 kts 43°
2026-05-07 00:14 37.09327 -77.41634 34849 ft 515 kts 30°
2026-05-07 00:15 37.12141 -77.38901 35178 ft 496 kts 20°
2026-05-07 00:15 37.15083 -77.36814 35570 ft 476 kts 11°
2026-05-07 00:15 37.18117 -77.35388 35913 ft 460 kts
2026-05-07 00:15 37.21112 -77.34148 36197 ft 459 kts
2026-05-07 00:16 37.24186 -77.32878 36464 ft 460 kts
2026-05-07 00:16 37.27219 -77.31608 36755 ft 460 kts
2026-05-07 00:16 37.30256 -77.30317 36915 ft 462 kts
2026-05-07 00:16 37.33273 -77.29025 36902 ft 466 kts
2026-05-07 00:17 37.39407 -77.26360 36904 ft 465 kts
2026-05-07 00:17 37.45471 -77.23705 36903 ft 459 kts
2026-05-07 00:18 37.51499 -77.21078 36934 ft 458 kts
2026-05-07 00:18 37.57517 -77.18457 36916 ft 457 kts
2026-05-07 00:19 37.63534 -77.15827 36911 ft 457 kts
2026-05-07 00:19 37.69546 -77.13145 36908 ft 464 kts
2026-05-07 00:20 37.72501 -77.11341 36918 ft 476 kts 14°
2026-05-07 00:20 37.75419 -77.09319 36909 ft 480 kts 15°
2026-05-07 00:20 37.81237 -77.05141 36912 ft 481 kts 15°
2026-05-07 00:21 37.87080 -77.01002 36908 ft 481 kts 15°
2026-05-07 00:21 37.92945 -76.96915 36940 ft 481 kts 14°
2026-05-07 00:22 37.98832 -76.92827 36907 ft 483 kts 14°
2026-05-07 00:22 38.04731 -76.88717 36899 ft 484 kts 15°
2026-05-07 00:23 38.10633 -76.84592 36879 ft 484 kts 15°
2026-05-07 00:23 38.16526 -76.80465 36921 ft 484 kts 15°
2026-05-07 00:24 38.22420 -76.76333 36893 ft 484 kts 15°
2026-05-07 00:24 38.25329 -76.74102 36875 ft 496 kts 22°
2026-05-07 00:24 38.28059 -76.71322 36900 ft 506 kts 28°
2026-05-07 00:25 38.33364 -76.65392 36873 ft 507 kts 29°
2026-05-07 00:25 38.38682 -76.59514 36887 ft 505 kts 27°
2026-05-07 00:26 38.43996 -76.53755 36886 ft 504 kts 27°
2026-05-07 00:26 38.49355 -76.48012 36868 ft 502 kts 27°
2026-05-07 00:27 38.54704 -76.42279 36873 ft 501 kts 27°
2026-05-07 00:27 38.60041 -76.36539 36895 ft 502 kts 27°
2026-05-07 00:28 38.65369 -76.30790 36889 ft 501 kts 27°
2026-05-07 00:28 38.70704 -76.25020 36884 ft 501 kts 27°
2026-05-07 00:29 38.76022 -76.19257 36930 ft 501 kts 27°
2026-05-07 00:30 38.86672 -76.07683 36875 ft 502 kts 27°
2026-05-07 00:30 38.91998 -76.01875 36883 ft 502 kts 27°
2026-05-07 00:31 38.97285 -75.96079 36907 ft 505 kts 28°
2026-05-07 00:31 39.02497 -75.89943 36887 ft 509 kts 30°
2026-05-07 00:32 39.07601 -75.83569 36872 ft 513 kts 32°
2026-05-07 00:32 39.12645 -75.77042 36839 ft 514 kts 33°
2026-05-07 00:33 39.17681 -75.70509 36861 ft 514 kts 32°
2026-05-07 00:33 39.22727 -75.63991 36865 ft 514 kts 32°
2026-05-07 00:34 39.27784 -75.57468 36855 ft 514 kts 32°
2026-05-07 00:34 39.32834 -75.50942 36862 ft 513 kts 32°
2026-05-07 00:35 39.37880 -75.44405 36870 ft 515 kts 32°
2026-05-07 00:35 39.42935 -75.37844 36866 ft 514 kts 32°
2026-05-07 00:36 39.47977 -75.31278 36864 ft 515 kts 32°
2026-05-07 00:36 39.53021 -75.24696 36917 ft 514 kts 32°
2026-05-07 00:37 39.57217 -75.19214 36871 ft 516 kts 32°
2026-05-07 00:37 39.62270 -75.12597 36871 ft 516 kts 32°
2026-05-07 00:38 39.67321 -75.05966 36828 ft 517 kts 33°
2026-05-07 00:38 39.72359 -74.99336 36853 ft 515 kts 33°
2026-05-07 00:39 39.77387 -74.92705 36858 ft 515 kts 33°
2026-05-07 00:39 39.82410 -74.86069 36858 ft 515 kts 33°
2026-05-07 00:40 39.87428 -74.79425 36862 ft 514 kts 33°
2026-05-07 00:40 39.92446 -74.72767 36885 ft 516 kts 32°
2026-05-07 00:41 39.97442 -74.66124 36858 ft 517 kts 33°
2026-05-07 00:41 40.02502 -74.59378 36852 ft 517 kts 33°
2026-05-07 00:42 40.07531 -74.52657 36853 ft 517 kts 33°
2026-05-07 00:42 40.12531 -74.45962 36861 ft 519 kts 33°
2026-05-07 00:43 40.17571 -74.39198 36863 ft 520 kts 33°
2026-05-07 00:43 40.22612 -74.32418 36863 ft 519 kts 33°
2026-05-07 00:44 40.27630 -74.25615 36908 ft 520 kts 34°
2026-05-07 00:44 40.32622 -74.18708 36879 ft 522 kts 34°
2026-05-07 00:45 40.37603 -74.11777 36867 ft 522 kts 34°
2026-05-07 00:45 40.42598 -74.04834 36418 ft 527 kts 34°
2026-05-07 00:46 40.45110 -74.01341 35952 ft 524 kts 34°
2026-05-07 00:46 40.47606 -73.97865 35330 ft 524 kts 35°
2026-05-07 00:46 40.50105 -73.94380 34724 ft 524 kts 36°
2026-05-07 00:46 40.52607 -73.90888 34092 ft 525 kts 36°
2026-05-07 00:47 40.55114 -73.87385 33364 ft 527 kts 36°
2026-05-07 00:47 40.57624 -73.83876 32664 ft 527 kts 37°
2026-05-07 00:47 40.60134 -73.80358 32043 ft 526 kts 37°
2026-05-07 00:47 40.62623 -73.76861 31614 ft 521 kts 37°
2026-05-07 00:48 40.65090 -73.73389 31116 ft 517 kts 37°
2026-05-07 00:48 40.67539 -73.69943 30623 ft 513 kts 37°
2026-05-07 00:48 40.69970 -73.66521 30143 ft 510 kts 38°
2026-05-07 00:48 40.72389 -73.63119 29553 ft 507 kts 38°
2026-05-07 00:49 40.74780 -73.59749 29067 ft 501 kts 38°
2026-05-07 00:49 40.77147 -73.56403 28546 ft 496 kts 38°
2026-05-07 00:49 40.79461 -73.53128 28055 ft 491 kts 38°
2026-05-07 00:49 40.81813 -73.49802 27615 ft 488 kts 38°
2026-05-07 00:50 40.84119 -73.46537 27111 ft 484 kts 38°
2026-05-07 00:50 40.86378 -73.43329 26882 ft 486 kts 39°
2026-05-07 00:50 40.88641 -73.40033 26843 ft 478 kts 39°
2026-05-07 00:50 40.90817 -73.36796 26826 ft 464 kts 39°
2026-05-07 00:51 40.92917 -73.33649 26825 ft 449 kts 39°
2026-05-07 00:51 40.94949 -73.30605 26827 ft 434 kts 39°
2026-05-07 00:51 40.96926 -73.27656 26802 ft 422 kts 38°
2026-05-07 00:51 40.98890 -73.24750 26117 ft 429 kts 38°
2026-05-07 00:52 41.00940 -73.21747 24993 ft 451 kts 39°
2026-05-07 00:52 41.03013 -73.18681 24921 ft 443 kts 39°
2026-05-07 00:52 41.05103 -73.15583 24668 ft 460 kts 39°
2026-05-07 00:52 41.07262 -73.12380 24439 ft 471 kts 40°
2026-05-07 00:53 41.09449 -73.09118 24182 ft 473 kts 40°
2026-05-07 00:53 41.11627 -73.05853 23940 ft 470 kts 40°
2026-05-07 00:53 41.13785 -73.02614 23695 ft 467 kts 40°
2026-05-07 00:53 41.15931 -72.99399 23461 ft 465 kts 40°
2026-05-07 00:54 41.18072 -72.96196 23179 ft 463 kts 40°
2026-05-07 00:54 41.20198 -72.93009 22891 ft 459 kts 40°
2026-05-07 00:54 41.22100 -72.89585 22727 ft 464 kts 54°
2026-05-07 00:54 41.23605 -72.85801 22687 ft 464 kts 58°
2026-05-07 00:55 41.25031 -72.81932 22569 ft 468 kts 59°
2026-05-07 00:55 41.26446 -72.78025 22455 ft 469 kts 59°
2026-05-07 00:55 41.27847 -72.74189 22338 ft 466 kts 59°
2026-05-07 00:55 41.29277 -72.70333 22231 ft 464 kts 59°
2026-05-07 00:56 41.30735 -72.66456 22158 ft 462 kts 59°
2026-05-07 00:56 41.32181 -72.62645 22028 ft 460 kts 59°
2026-05-07 00:56 41.33622 -72.58856 21887 ft 459 kts 59°
2026-05-07 00:56 41.35042 -72.55123 21788 ft 457 kts 59°
2026-05-07 00:57 41.36490 -72.51309 21680 ft 455 kts 59°
2026-05-07 00:57 41.37915 -72.47550 21582 ft 454 kts 59°
2026-05-07 00:57 41.39336 -72.43794 21480 ft 453 kts 59°
2026-05-07 00:57 41.40731 -72.40101 21380 ft 452 kts 59°
2026-05-07 00:58 41.42143 -72.36356 21276 ft 452 kts 59°
2026-05-07 00:58 41.43550 -72.32619 21175 ft 451 kts 60°
2026-05-07 00:58 41.44953 -72.28888 21067 ft 450 kts 60°
2026-05-07 00:58 41.46355 -72.25160 20934 ft 450 kts 60°
2026-05-07 00:59 41.49142 -72.17693 20549 ft 451 kts 61°
2026-05-07 00:59 41.50510 -72.13954 20227 ft 445 kts 61°
2026-05-07 00:59 41.51854 -72.10260 19923 ft 439 kts 62°
2026-05-07 01:00 41.53182 -72.06614 19629 ft 434 kts 62°
2026-05-07 01:00 41.54497 -72.03010 19338 ft 430 kts 62°
2026-05-07 01:00 41.55791 -71.99444 19048 ft 425 kts 64°
2026-05-07 01:00 41.56937 -71.95824 18769 ft 422 kts 68°
2026-05-07 01:01 41.57990 -71.92183 18500 ft 417 kts 69°
2026-05-07 01:01 41.59035 -71.88583 18180 ft 414 kts 69°
2026-05-07 01:01 41.60086 -71.85017 17863 ft 410 kts 69°
2026-05-07 01:01 41.61130 -71.81486 17566 ft 406 kts 69°
2026-05-07 01:02 41.62164 -71.77984 17275 ft 405 kts 69°
2026-05-07 01:02 41.63200 -71.74476 17002 ft 407 kts 69°
2026-05-07 01:02 41.64138 -71.71293 16752 ft 409 kts 69°
2026-05-07 01:02 41.65180 -71.67754 16474 ft 408 kts 69°
2026-05-07 01:03 41.66209 -71.64255 16326 ft 401 kts 69°
2026-05-07 01:03 41.67224 -71.60795 16081 ft 396 kts 69°
2026-05-07 01:03 41.68222 -71.57393 15795 ft 390 kts 69°
2026-05-07 01:03 41.69189 -71.54086 15533 ft 384 kts 69°
2026-05-07 01:04 41.70168 -71.50738 15294 ft 380 kts 69°
2026-05-07 01:04 41.71128 -71.47451 15051 ft 379 kts 69°
2026-05-07 01:04 41.72086 -71.44166 14780 ft 378 kts 69°
2026-05-07 01:04 41.73163 -71.40961 14526 ft 378 kts 61°
2026-05-07 01:05 41.74471 -71.37966 14276 ft 377 kts 57°
2026-05-07 01:05 41.75838 -71.34966 14017 ft 378 kts 58°
2026-05-07 01:05 41.77178 -71.31935 13755 ft 377 kts 59°
2026-05-07 01:05 41.78489 -71.28892 13476 ft 377 kts 59°
2026-05-07 01:06 41.79786 -71.25846 13197 ft 376 kts 59°
2026-05-07 01:06 41.81075 -71.22813 12910 ft 374 kts 59°
2026-05-07 01:06 41.82363 -71.19781 12647 ft 373 kts 59°
2026-05-07 01:06 41.83644 -71.16767 12392 ft 371 kts 59°
2026-05-07 01:07 41.84919 -71.13763 12131 ft 368 kts 59°
2026-05-07 01:07 41.86176 -71.10811 11913 ft 361 kts 59°
2026-05-07 01:07 41.87421 -71.07924 11676 ft 354 kts 58°
2026-05-07 01:07 41.88648 -71.05092 11464 ft 348 kts 58°
2026-05-07 01:08 41.89854 -71.02307 11257 ft 343 kts 58°
2026-05-07 01:08 41.91045 -70.99552 11057 ft 340 kts 58°
2026-05-07 01:08 41.92228 -70.96812 10859 ft 339 kts 58°
2026-05-07 01:08 41.93408 -70.94074 10644 ft 338 kts 58°
2026-05-07 01:09 41.94580 -70.91350 10456 ft 336 kts 58°
2026-05-07 01:09 41.95747 -70.88635 10252 ft 334 kts 58°
2026-05-07 01:09 41.96899 -70.85951 10016 ft 329 kts 58°
2026-05-07 01:09 41.98035 -70.83304 9827 ft 325 kts 58°
2026-05-07 01:10 41.99162 -70.80676 9633 ft 325 kts 58°
2026-05-07 01:10 42.00288 -70.78047 9455 ft 324 kts 59°
2026-05-07 01:10 42.01464 -70.75486 9206 ft 319 kts 50°
2026-05-07 01:10 42.02898 -70.73246 9017 ft 314 kts 43°
2026-05-07 01:11 42.04394 -70.71130 8820 ft 310 kts 43°
2026-05-07 01:11 42.05867 -70.69023 8626 ft 308 kts 44°
2026-05-07 01:11 42.07309 -70.66904 8446 ft 307 kts 44°
2026-05-07 01:11 42.08743 -70.64767 8269 ft 309 kts 45°
2026-05-07 01:12 42.10208 -70.62648 8075 ft 308 kts 37°
2026-05-07 01:12 42.12030 -70.61261 7820 ft 297 kts 11°
2026-05-07 01:12 42.14024 -70.60621 7571 ft 294 kts
2026-05-07 01:12 42.16029 -70.60088 7286 ft 293 kts
2026-05-07 01:13 42.18018 -70.59566 7023 ft 290 kts
2026-05-07 01:13 42.19995 -70.59038 6748 ft 289 kts
2026-05-07 01:13 42.21960 -70.58505 6470 ft 287 kts
2026-05-07 01:13 42.23906 -70.57968 6197 ft 285 kts
2026-05-07 01:14 42.25842 -70.57430 5909 ft 283 kts
2026-05-07 01:14 42.27762 -70.56894 5637 ft 280 kts
2026-05-07 01:14 42.29664 -70.56362 5369 ft 278 kts
2026-05-07 01:14 42.31555 -70.56000 5097 ft 269 kts 349°
2026-05-07 01:15 42.33263 -70.56714 5030 ft 252 kts 324°
2026-05-07 01:15 42.34644 -70.58092 5010 ft 244 kts 311°
2026-05-07 01:15 42.35868 -70.59678 5028 ft 244 kts 309°
2026-05-07 01:15 42.37080 -70.61310 5008 ft 248 kts 309°
2026-05-07 01:16 42.38300 -70.62954 4994 ft 247 kts 309°
2026-05-07 01:16 42.39522 -70.64590 4988 ft 247 kts 309°
2026-05-07 01:16 42.40746 -70.66220 4991 ft 246 kts 309°
2026-05-07 01:16 42.41969 -70.67842 4989 ft 246 kts 309°
2026-05-07 01:17 42.43176 -70.69440 4993 ft 246 kts 310°
2026-05-07 01:17 42.44399 -70.71057 4996 ft 246 kts 310°
2026-05-07 01:17 42.45625 -70.72676 4991 ft 246 kts 310°
2026-05-07 01:17 42.46854 -70.74297 4993 ft 247 kts 310°
2026-05-07 01:18 42.48084 -70.75921 4989 ft 247 kts 310°
2026-05-07 01:18 42.49317 -70.77549 4989 ft 247 kts 310°
2026-05-07 01:18 42.50541 -70.79165 4978 ft 243 kts 310°
2026-05-07 01:18 42.51782 -70.80656 4970 ft 237 kts 322°
2026-05-07 01:19 42.53360 -70.81305 4993 ft 241 kts 350°
2026-05-07 01:19 42.55044 -70.80996 4994 ft 249 kts 11°
2026-05-07 01:19 42.56689 -70.80208 5008 ft 253 kts 15°
2026-05-07 01:19 42.58350 -70.79353 5003 ft 257 kts 15°
2026-05-07 01:20 42.60026 -70.78501 5010 ft 258 kts 15°
2026-05-07 01:20 42.61706 -70.77663 4990 ft 255 kts 15°
2026-05-07 01:20 42.63353 -70.76930 4853 ft 245 kts
2026-05-07 01:20 42.64941 -70.77315 4500 ft 229 kts 321°
2026-05-07 01:21 42.65996 -70.78819 4263 ft 217 kts 296°
2026-05-07 01:21 42.66539 -70.80650 4072 ft 209 kts 276°
2026-05-07 01:21 42.66513 -70.82586 3956 ft 206 kts 255°
2026-05-07 01:21 42.65907 -70.84342 3867 ft 208 kts 236°
2026-05-07 01:22 42.64843 -70.85704 3770 ft 217 kts 216°
2026-05-07 01:22 42.63476 -70.86603 3688 ft 218 kts 208°
2026-05-07 01:22 42.62074 -70.87384 3589 ft 217 kts 207°
2026-05-07 01:22 42.60683 -70.88127 3493 ft 210 kts 208°
2026-05-07 01:23 42.59387 -70.88864 3407 ft 194 kts 210°
2026-05-07 01:23 42.58181 -70.89534 3312 ft 179 kts 210°
2026-05-07 01:23 42.57437 -70.89988 3254 ft 168 kts 210°
2026-05-07 01:23 42.56416 -70.90566 3173 ft 154 kts 210°
2026-05-07 01:24 42.55432 -70.91158 3074 ft 154 kts 213°
2026-05-07 01:24 42.54456 -70.91736 3014 ft 152 kts 210°
2026-05-07 01:24 42.53472 -70.92261 3011 ft 153 kts 208°
2026-05-07 01:24 42.52451 -70.92776 2874 ft 159 kts 207°
2026-05-07 01:25 42.51420 -70.93280 2688 ft 155 kts 208°
2026-05-07 01:25 42.50425 -70.93757 2519 ft 149 kts 208°
2026-05-07 01:25 42.49461 -70.94233 2363 ft 146 kts 211°
2026-05-07 01:25 42.48495 -70.94694 2198 ft 148 kts 206°
2026-05-07 01:26 42.47534 -70.95142 2137 ft 142 kts 210°
2026-05-07 01:26 42.46609 -70.95607 1994 ft 141 kts 207°
2026-05-07 01:26 42.45682 -70.96060 1796 ft 141 kts 206°
2026-05-07 01:26 42.44756 -70.96509 1602 ft 142 kts 206°
2026-05-07 01:27 42.43827 -70.96959 1409 ft 143 kts 205°
2026-05-07 01:27 42.42876 -70.97420 1207 ft 146 kts 204°
2026-05-07 01:27 42.41911 -70.97886 1004 ft 150 kts 205°
2026-05-07 01:27 42.40913 -70.98372 795 ft 153 kts 202°
2026-05-07 01:28 42.39928 -70.98845 606 ft 147 kts 200°
2026-05-07 01:28 42.38961 -70.99299 436 ft 148 kts 201°
2026-05-07 01:28 42.37978 -70.99793 255 ft 149 kts 201°
2026-05-07 01:28 42.37021 -71.00257 45 ft 141 kts 201°
2026-05-07 01:29 42.36176 -71.00665 25 ft 89 kts 200°
2026-05-07 01:29 42.35829 -71.00835 27 ft 47 kts 200°
2026-05-07 01:29 42.35565 -71.00962 26 ft 42 kts 200°
2026-05-07 01:29 42.35376 -71.01122 25 ft 31 kts 261°
2026-05-07 01:30 42.35425 -71.01274 27 ft 27 kts 297°
2026-05-07 01:30 42.35498 -71.01362 27 ft 13 kts 19°
2026-05-07 01:30 42.35663 -71.01305 24 ft 36 kts 15°
2026-05-07 01:30 42.35832 -71.01257 25 ft 23 kts 327°
2026-05-07 01:31 42.35866 -71.01451 27 ft 4 kts 283°
2026-05-07 01:32 42.35875 -71.01504 24 ft 9 kts 281°
2026-05-07 01:32 42.35894 -71.01599 29 ft 11 kts 306°
2026-05-07 01:32 42.35975 -71.01616 27 ft 13 kts 358°
2026-05-07 01:33 42.36033 -71.01663 25 ft 8 kts 296°
2026-05-07 01:33 42.36040 -71.01685 27 ft 2 kts 291°
2026-05-07 01:33 42.36044 -71.01699 26 ft 2 kts 290°
2026-05-07 01:33 42.36045 -71.01703 24 ft 0 kts 289°